Regional Weather Roundup
Issued by NWS Albany, NY

Home | Current Version | Previous Version | Graphics & Text | Print | Product List | Glossary Off
Versions: 1 2 3 4 5 6 7 8 9 10 11 12 13 14 15 16 17 18 19 20 21 22 23 24 25 26 27 28 29 30 31 32 33 34 35 36 37 38 39 40 41 42 43 44 45 46 47 48 49 50

011
ASUS41 KALY 240210
RWRALY

NEW YORK STATE HOURLY WEATHER ROUNDUP
NATIONAL WEATHER SERVICE ALBANY NY
1000 PM EDT FRI JUN 23 2017

NOTE: "FAIR" INDICATES FEW OR NO CLOUDS BELOW 12,000 FEET WITH NO
SIGNIFICANT WEATHER AND/OR NO OBSTRUCTIONS TO VISIBILITY.

NYZ032-033-038>043-046>054-057>066-NYZ062>081-082-084-240300-
EAST


CITY           SKY/WX    TMP DP  RH WIND       PRES   REMARKS
ALBANY         LGT RAIN  78  70  76 S9        29.57S
GLENS FALLS    MOCLDY    74  70  87 S10       29.56R
POUGHKEEPSIE   CLOUDY    77  72  84 VRB5      29.61R
NEWBURGH       MOCLDY    77  73  88 W8        29.65
MONTGOMERY     LGT RAIN  76  72  87 SW10      29.63R
ISLIP          MOCLDY    74  71  91 SW14      29.66R
NEW YORK CITY  CLOUDY    79  74  84 SW9       29.64R
CENTRAL PARK   CLOUDY    78  75  90 VRB6      29.67S
$$

NYZ005>009-017-018-044>046-055-056-240300-
CENTRAL


CITY           SKY/WX    TMP DP  RH WIND       PRES   REMARKS
FULTON         HVY RAIN  73  70  90 W13G22    29.56R FOG
SYRACUSE       CLOUDY    76  70  82 SW8       29.53S
ROME           CLOUDY    75  70  84 S5        29.55R
ELMIRA         NOT AVBL
BINGHAMTON     PTCLDY    70  68  94 SW7       29.64R
MONTICELLO     MOCLDY    73  72  94 SW8       29.68R
$$

NYZ026>034-041>043-087-240300-
NORTH


CITY           SKY/WX    TMP DP  RH WIND       PRES   REMARKS
WATERTOWN      LGT RAIN  69  69 100 SW3       29.52R FOG
FORT DRUM      NOT AVBL
OGDENSBURG     FAIR      70  69  95 SW6       29.51R
MASSENA        CLOUDY    72  70  93 SW6       29.50S
SARANAC LAKE   CLOUDY    68  68 100 SW3       29.56R
PLATTSBURGH    CLOUDY    69  68  96 SW3       29.50R
$$

NYZ001>004-010>016-019>021-085-240300-
WEST


CITY           SKY/WX    TMP DP  RH WIND       PRES   REMARKS
NIAGARA FALLS  CLOUDY    72  68  87 SW7       29.59R
BUFFALO        LGT RAIN  69  67  93 W9        29.60R FOG
DUNKIRK        CLOUDY    71  69  93 W14G24    29.62R
JAMESTOWN      CLOUDY    68  64  88 W10G17    29.68R
WELLSVILLE     CLOUDY    69  65  86 W6        29.70R
ROCHESTER      CLOUDY    73  70  90 W7        29.58R
PENN YAN       CLOUDY    74  66  76 SW8       29.61R
$$

             KEY
       WCI = WIND CHILL INDEX
       VSB = VISIBILITY
       HX  = HEAT INDEX
$$




USA.gov is the U.S. government's official web portal to all federal, state and local government web resources and services.